Location: East Guldeford
(50.9500°N, 0.7500°E)
Time: 09:52:39
(UTC+00:00)

Cosmos 1844 Rocket - Pass Details

Date: 12 May 2021
Orbit: 823 x 845 km, 71.0° (Epoch: 16 June)

Event Time Altitude Azimuth Distance (km) Brightness Sun altitude
Rises 20:04:13 0° 214° (SW) 3,349 5.8 -4.5°
Reaches altitude 10° 20:06:39 10° 216° (SW) 2,421 5.1 -4.8°
Maximum altitude 20:12:11 74° 301° (WNW) 866 3.0 -5.5°
Drops below altitude 10° 20:17:48 10° 27° (NNE) 2,448 5.3 -6.2°
Sets 20:20:16 0° 30° (NNE) 3,389 6.0 -6.5°
